Preview of NWS' New Version of Forecast
This preview is not operational and should not be used for support decisions.

Regional Weather Roundup (RWR)

Issued by National Weather Service (NWS)

                            
000
ASUS45 KCYS 170210
RWRWY 

WYOMING REGIONAL WEATHER ROUNDUP
NATIONAL WEATHER SERVICE CHEYENNE WY
700 PM MST SAT FEB 16 2019

NOTE:  "FAIR" INDICATES FEW OR NO CLOUDS BELOW 12,000 FEET
WITH NO SIGNIFICANT WEATHER AND/OR OBSTRUCTIONS TO VISIBILITY.

WYZ001-170300-
...YELLOWSTONE NATIONAL PARK...
  
CITY           SKY/WX    TMP DP  RH WIND       PRES   REMARKS
LK YELLOWSTONE   N/A     10   5  80 W3        29.67F                  
W YELLOWSTONE  NOT AVBL                                               

$$
WYZ002>013-054>058-071-098>099-170300-
...NORTHERN WYOMING...
  
CITY           SKY/WX    TMP DP  RH WIND       PRES   REMARKS
JACKSON        CLOUDY    19  13  77 S8        29.72S WCI   9          
CODY           PTCLDY    21  14  74 VRB3      29.70R                  
GREYBULL       CLOUDY    26  19  74 NW13      29.71R WCI  15          
WORLAND        CLOUDY    28  20  71 NW6       29.71R WCI  22          
SHERIDAN       LGT SNOW  12   8  84 NW17      29.81R FOG     WCI  -5  
BUFFALO        LGT SNOW  12   7  80 N15       29.70R WCI  -4          
GILLETTE       CLOUDY    12   8  84 N10       29.73R WCI  -1          
HULETT         LGT SNOW   9   3  78 MISG      29.75R                  
NEWCASTLE        N/A     12   5  73 N21       29.67S WCI  -6          

$$
WYZ014>020-022>026-101>103-170300-
...CENTRAL WYOMING...
  
CITY           SKY/WX    TMP DP  RH WIND       PRES   REMARKS
BIG PINEY      PTCLDY     9   1  70 NE15      29.71R WCI  -8          
PINEDALE       PTCLDY     5   0  78 W10       29.71S WCI -10          
DUBOIS         FAIR      14   3  62 W10       29.65R WCI   1          
LANDER         MOCLDY    26   9  48 SW6       29.68R WCI  19          
RIVERTON       PTCLDY    24  13  62 NE6       29.68R WCI  17          
CASPER         CLOUDY    21  18  88 NE7       29.68R WCI  12          
DOUGLAS        CLOUDY    24  18  77 N15       29.68R WCI  11          

$$
WYZ021-027>030-104>119-170300-
...SOUTHERN WYOMING...
  
CITY           SKY/WX    TMP DP  RH WIND       PRES   REMARKS
EVANSTON       CLOUDY    16   6  65 SW7       29.75R WCI   6          
KEMMERER       CLEAR     14   9  79 W10       29.72S WCI   1          
FORT BRIDGER   MOCLDY    16   9  73 E17       29.77R WCI   0          
ROCK SPRINGS   PTCLDY    17   9  70 W23       29.73R WCI  -1          
DIXON          CLOUDY    20   8  58 W7G13     29.77R WCI  11          
RAWLINS        PTCLDY    19  11  70 W24G32    29.66R WCI   2          
SARATOGA       FAIR      18  10  73 W15G23    29.67R WCI   3          
LARAMIE        MOCLDY    18   9  68 W14       29.61R WCI   4          
CHEYENNE       MOCLDY    25  10  53 NW20G36   29.59R WCI  11          
TORRINGTON     CLOUDY    28  19  69 NW15      29.65R WCI  16          
PINE BLUFFS    LGT SNOW  27  21  80 N15G21    29.63R WCI  15          

$$